Regional Weather Roundup
Issued by NWS Sterling, VA

Current Version | Previous Version | Text Only | Print | Product List | Glossary On
Versions: 1 2 3 4 5 6 7 8 9 10 11 12 13 14 15 16 17 18 19 20 21 22 23 24 25 26 27 28 29 30 31 32 33 34 35 36 37 38 39 40 41 42 43 44 45 46 47 48 49 50
000
ASUS41 KLWX 302210
RWRLWX

REGIONAL WEATHER ROUNDUP
NATIONAL WEATHER SERVICE BALTIMORE MD/WASHINGTON DC
600 PM EDT MON MAR 30 2015

Note: "FAIR" indicates few or no clouds below 12,000 feet
with no significant weather and/or obstructions to visibility.
 TC=TEMPERATURE CELSIUS

 * =Non NWS site. Station does not report precipitation (e.g. rain,
    snow, etc.), thunder, or fog.

DCZ001-MDZ009-015-VAZ040>042-051-053>054-302300-
WASHINGTON METRO

CITY           SKY/WX    TMP DP  RH WIND       PRES   REMARKS
WASHINGTON NAT MOSUNNY   65  23  20 NW12G31   29.86R
DULLES         MOSUNNY   59  23  25 W21G30    29.86R
ANDREWS AFB    SUNNY     60  24  25 W18G24    29.84
FT BELVOIR     SUNNY     63  23  22 NW21G28   29.85S
QUANTICO       MOSUNNY   63  19  18 NW17G26   29.87R
COLLEGE PARK*  MOSUNNY   61  21  21 W16G22    29.85R
LEESBURG*      MOSUNNY   61  30  31 W12G26    29.87S
MANASSAS*      SUNNY     63  23  22 NW18G24   29.86S
GAITHERSBURG*  MOSUNNY   57  23  26 NW18      29.89R

$$

MDZ006>007-011-014-302300-
BALTIMORE METRO

CITY           SKY/WX    TMP DP  RH WIND       PRES   REMARKS
BWI AIRPORT    MOSUNNY   59  21  23 W15G30    29.84R
MD SCIENCE CTR   N/A     59  19  21 MISG      29.83F
MARTIN STATE   PTSUNNY   61  27  27 W14G23    29.85S
ANNAPOLIS      MOSUNNY   57  23  26 NW12      29.84S

$$

MDZ012-015-019>023-302300-
MARYLAND EASTERN SHORE

CITY           SKY/WX    TMP DP  RH WIND       PRES   REMARKS
OCEAN CITY     PTSUNNY   58  32  37 NW8G18    29.85S
SALISBURY      MOSUNNY   58  30  34 W13       29.85R
BAY BRIDGE AP*   N/A     55  27  33 W7        29.85S
CAMBRIDGE*     SUNNY     61  27  27 NW9       29.85S
EASTON*        MOSUNNY   61  30  31 NW12      29.88S

$$

MDZ017>025-302300-
SOUTHERN MARYLAND

CITY           SKY/WX    TMP DP  RH WIND       PRES   REMARKS
PATUXENT RIVER MOSUNNY   61  27  27 NW10      29.85R
ST INIGOES     SUNNY     62  29  28 W7        29.85R
LEONARDTOWN*   MOSUNNY   63  21  20 W10       29.86S

$$

MDZ003>005-302300-
NORTH CENTRAL MARYLAND

CITY           SKY/WX    TMP DP  RH WIND       PRES   REMARKS
FREDERICK*     MOSUNNY   59  10  14 NW18      29.88S
HAGERSTOWN APT PTSUNNY   57  21  24 NW22G28   29.86R
WESTMINSTER*   PTSUNNY   57  16  19 NW20G25   29.85R

$$

MDZ501>502-302300-
WESTERN MARYLAND

CITY           SKY/WX    TMP DP  RH WIND       PRES   REMARKS
OAKLAND*       MOSUNNY   41  21  45 NW13G25   29.90R
CUMBERLAND*    SUNNY     55  21  26 NW13G25   29.93R

$$

VAZ025>031-302300-
SHENANDOAH VALLEY

CITY           SKY/WX    TMP DP  RH WIND       PRES   REMARKS
WINCHESTER*    SUNNY     59   9  13 NW17G31   29.87R
FRONT ROYAL*   FAIR      55  23  28 W12G18    29.87R
LURAY*         FAIR      61  27  27 W12G20    29.89R
NEW MARKET*    FAIR      57  21  24 W8G20     29.88S
STAUNTON*      SUNNY     59  19  20 NW13G21   29.92R
WAYNESBORO*    FAIR      57  20  23 W9G17     29.90R

$$

WVZ021-048>050-054>055-302300-
EASTERN WEST VIRGINIA PANHANDLE

CITY           SKY/WX    TMP DP  RH WIND       PRES   REMARKS
MARTINSBURG    MOSUNNY   59  20  22 W20G29    29.87R
PETERSBURG*    MOSUNNY   56  16  21 NW21G33   29.91R

$$

VAZ036>039-050-302300-
CENTRAL FOOTHILLS

CITY           SKY/WX    TMP DP  RH WIND       PRES   REMARKS
CHARLOTTESVILL SUNNY     62  18  18 NW10G20   29.88R
CULPEPER*      SUNNY     64  19  17 NW12G17   29.87R
ORANGE*        SUNNY     63  21  20 SW15G21   29.88S
GORDONSVILLE*  FAIR      62  20  19 W8G16     29.87R
WARRENTON*     FAIR      63  32  31 W16G24    29.86R

$$

VAZ055>057-302300-
NORTH AND CENTRAL PIEDMONT

CITY           SKY/WX    TMP DP  RH WIND       PRES   REMARKS
FREDERICKSBRG* SUNNY     64  21  19 NW17G26   29.85S
STAFFORD*      SUNNY     63  15  15 NW12G21   29.90R

$$

NCZ024-NYZ072-PAZ021-071-VAZ022-071-302300-
OTHER REGIONAL OBSERVATIONS

CITY           SKY/WX    TMP DP  RH WIND       PRES   REMARKS
NEW YORK CITY  CLOUDY    51  24  34 MISG      29.80S
PHILADELPHIA   MOSUNNY   56  22  26 NW18G30   29.83R
PITTSBURGH     PTSUNNY   50  22  33 W25       29.92S
ROANOKE        SUNNY     60  19  20 W20       29.97R
RICHMOND       MOSUNNY   67  26  21 NW13G22   29.86S
RALEIGH        MOSUNNY   66  40  38 W10       29.93S

$$

ANZ530>537-302300-
MARINE OBSERVATIONS

STATION/POSITION TIME  TEMP    WIND        PRES
                       AIR SEA DIR/SP/G
                 (UTC) (F)     (DEG/KT/KT) (MB)
THOMAS PT LIGHT  2200                        N/A
BALT KEY BRIDGE  2100   55     260/ 14/ 15 1010.1S
COVE POINT       2100   56      20/  6/  8 1010.4F
LEWISETTA        2100   57 43              1010.5F
SOLOMONS ISLAND  2100      43                N/A
PINEY POINT      2112          320/  8/  9   N/A

$$



USA.gov is the U.S. government's official web portal to all federal, state and local government web resources and services.